Location: Bronschhofen
(47.4788°N, 9.0353°E)
Time: 20:28:38
(UTC+00:00)

SL-08 R/B - Pass Details

Date: 20 May 2022
Orbit: 947 x 992 km, 83.0° (Epoch: 06 July)

Event Time Altitude Azimuth Distance (km) Brightness Sun altitude
Rises 00:14:48 0° 350° (N) 3,668 8.7 -21.5°
Reaches altitude 10° 00:17:18 10° 350° (N) 2,724 7.8 -21.4°
Maximum altitude 00:23:33 82° 264° (W) 994 4.4 -21.1°
Enters shadow 00:26:12 38° 181° (S) 1,468 4.9 -21.0°
